Date,TemperatureHighF,TemperatureAvgF,TemperatureLowF,DewpointHighF,DewpointAvgF,DewpointLowF,HumidityHigh,HumidityAvg,HumidityLow,PressureMaxIn,PressureMinIn,WindSpeedMaxMPH,WindSpeedAvgMPH,GustSpeedMaxMPH,PrecipitationSumIn
2013-3-1,53.8,42.9,34.9,34.5,29.5,25.4,74,60,43,30.28,30.22,12,3,12,0.00
2013-3-2,58.3,43.0,30.4,37.1,30.3,25.0,82,62,42,30.28,29.89,14,4,14,0.00
2013-3-3,44.5,36.8,24.8,38.4,23.7,7.4,90,62,30,30.02,29.67,26,8,26,0.00
2013-3-4,34.7,24.2,15.8,16.5,11.7,8.0,74,59,42,30.24,30.02,14,4,14,0.00
2013-3-5,42.5,25.4,11.9,22.1,13.9,5.9,81,64,36,30.19,29.93,5,1,5,0.00
2013-3-6,46.6,32.6,21.4,34.2,25.2,15.6,91,75,57,29.93,29.70,18,2,18,0.00
2013-3-7,47.3,34.5,22.7,30.8,23.2,15.2,91,67,29,30.01,29.82,14,3,14,0.00
2013-3-8,52.7,33.8,23.9,28.7,22.9,18.5,82,65,39,29.98,29.86,5,1,5,0.00
2013-3-9,54.0,31.2,18.7,28.1,19.8,14.3,87,66,33,30.23,29.95,11,2,11,0.00
2013-3-10,51.5,32.9,21.2,26.8,21.7,16.0,84,66,34,30.26,30.03,11,3,11,0.00
2013-3-11,46.3,37.0,25.6,29.2,21.8,10.6,77,56,25,30.21,30.05,26,6,26,0.00
2013-3-12,55.4,36.3,20.7,31.3,23.0,14.0,78,61,37,30.23,30.02,15,3,15,0.00
2013-3-13,63.5,48.7,35.6,35.0,28.7,25.3,68,48,25,30.15,30.09,12,3,14,0.00
2013-3-14,68.6,48.7,32.8,37.3,30.4,25.0,77,52,26,30.18,29.96,15,3,15,0.00
2013-3-15,61.6,50.2,37.3,29.6,25.7,20.1,58,39,22,30.03,29.95,20,6,20,0.00
2013-3-16,56.5,42.7,29.5,32.0,23.4,17.3,80,51,22,30.03,29.62,14,4,14,0.00
2013-3-17,44.6,33.8,24.8,31.8,22.1,12.0,93,65,40,29.90,29.58,22,5,22,0.00
2013-3-18,41.0,30.2,20.9,21.2,15.3,10.9,73,55,31,29.98,29.85,22,6,22,0.00
2013-3-19,54.4,34.5,25.0,21.9,15.6,8.7,74,49,21,30.20,29.98,17,5,17,0.00
2013-3-20,58.7,42.0,29.3,34.3,25.0,13.9,88,52,36,30.05,29.59,23,8,23,0.00
2013-3-21,42.3,33.7,23.4,31.3,20.2,9.2,92,61,30,29.91,29.67,19,5,19,0.00
2013-3-22,34.9,26.5,18.5,19.3,13.5,9.2,76,59,35,30.10,29.89,18,5,18,0.00
2013-3-23,43.6,24.0,13.5,18.0,9.3,4.4,71,55,29,30.21,30.10,10,2,10,0.00
2013-3-24,49.0,26.3,13.5,18.7,11.3,5.2,80,56,22,30.24,30.14,10,2,10,0.00
2013-3-25,57.6,30.5,13.5,15.7,9.3,5.2,74,46,16,30.16,29.97,14,3,14,0.00
2013-3-26,63.4,41.9,30.2,23.1,16.6,7.6,54,37,19,29.99,29.90,15,3,15,0.00
2013-3-27,60.8,40.6,20.7,29.9,22.5,13.7,79,52,25,30.01,29.93,14,3,14,0.00
2013-3-28,63.0,49.8,30.6,33.6,28.5,23.6,77,47,25,30.08,29.98,12,3,12,0.00
2013-3-29,58.5,45.4,32.8,40.6,34.1,27.3,82,66,43,30.16,30.05,13,2,13,0.00
2013-3-30,67.9,46.1,31.7,38.2,29.3,21.3,86,57,22,30.21,30.08,12,2,12,0.00
2013-3-31,60.1,42.9,24.3,31.4,24.9,18.4,82,53,29,30.11,30.02,13,4,13,0.00